W5COG Weather Reports


time (UTC)temp
C
wind
direction
speed
KPH
gust
KPH
rain 1hr
cm
rain 24hr
cm
rain mn
cm
humidity
%
barometer
mb
20260510130531 15 300 1.6 3.2 0.00 0.00 0.00 85 1016.9
20260510130029 15 275 0.0 1.6 0.00 0.00 0.00 85 1016.6
20260510125529 15 237 0.0 1.6 0.00 0.00 0.00 85 1016.6
20260510125029 15 231 0.0 4.8 0.00 0.00 0.00 86 1016.6
20260510124529 15 154 0.0 1.6 0.00 0.00 0.00 85 1016.6
20260510124029 15 282 0.0 1.6 0.00 0.00 0.00 85 1016.5
20260510123529 15 277 0.0 3.2 0.00 0.00 0.00 86 1016.2
20260510123029 15 238 0.0 4.8 0.00 0.00 0.00 87 1016.0
20260510122529 15 229 0.0 4.8 0.00 0.00 0.00 86 1016.0
20260510122029 15 251 0.0 3.2 0.00 0.00 0.00 85 1015.8
20260510121529 15 246 0.0 0.0 0.00 0.00 0.00 84 1015.4
20260510121029 15 263 0.0 0.0 0.00 0.00 0.00 82 1015.0
20260510120529 15 249 0.0 1.6 0.00 0.00 0.00 83 1014.9
20260510120029 15 248 0.0 1.6 0.00 0.00 0.00 82 1014.8
20260510115529 15 290 0.0 0.0 0.00 0.00 0.00 82 1014.6
20260510115029 15 326 0.0 1.6 0.00 0.00 0.00 84 1014.5
20260510114529 15 65 0.0 3.2 0.00 0.00 0.00 85 1014.3
20260510114029 15 176 0.0 1.6 0.00 0.00 0.00 84 1014.2
20260510113529 15 191 0.0 0.0 0.00 0.00 0.00 84 1013.9
20260510113029 15 239 0.0 1.6 0.00 0.00 0.00 84 1013.8
20260510112529 15 312 0.0 1.6 0.00 0.00 0.00 85 1013.8
20260510112029 15 84 0.0 0.0 0.00 0.00 0.00 85 1013.6
20260510111529 15 63 0.0 1.6 0.00 0.00 0.00 85 1013.4
20260510111029 15 40 0.0 1.6 0.00 0.00 0.00 83 1013.4
20260510105529 15 311 0.0 0.0 0.00 0.00 0.00 83 1013.3
20260510105029 15 345 0.0 1.6 0.00 0.00 0.00 83 1013.2
20260510104529 15 58 0.0 1.6 0.00 0.00 0.00 84 1012.8
20260510104029 15 77 0.0 1.6 0.00 0.00 0.00 84 1012.7
20260510103529 15 92 1.6 3.2 0.00 0.00 0.00 84 1012.7
20260510103029 15 51 1.6 3.2 0.00 0.00 0.00 85 1012.7
20260510102529 15 78 1.6 6.4 0.00 0.00 0.00 84 1012.7
20260510102029 16 75 1.6 4.8 0.00 0.00 0.00 84 1012.8
20260510101529 16 75 0.0 1.6 0.00 0.00 0.00 84 1012.8
20260510101029 16 90 0.0 3.2 0.00 0.00 0.00 83 1012.7
20260510095529 16 78 1.6 4.8 0.00 0.00 0.00 81 1012.4
20260510095029 16 83 1.6 3.2 0.00 0.00 0.00 80 1012.3
20260510094532 16 63 0.0 1.6 0.00 0.00 0.00 79 1012.3
20260510094029 16 56 0.0 4.8 0.00 0.00 0.00 78 1012.3
20260510093529 16 97 1.6 3.2 0.00 0.00 0.00 77 1012.3
20260510093029 16 356 0.0 3.2 0.00 0.00 0.00 76 1012.3
20260510092529 16 345 0.0 0.0 0.00 0.00 0.00 76 1012.3
20260510092029 16 19 0.0 0.0 0.00 0.00 0.00 76 1012.1
20260510091529 16 249 0.0 0.0 0.00 0.00 0.00 76 1012.1
20260510091029 16 233 0.0 0.0 0.00 0.00 0.00 76 1011.9
20260510090529 17 64 0.0 1.6 0.00 0.00 0.00 76 1011.9
20260510090029 17 77 0.0 1.6 0.00 0.00 0.00 76 1011.9
20260510085529 17 323 0.0 1.6 0.00 0.00 0.00 75 1011.9
20260510085029 17 319 0.0 0.0 0.00 0.00 0.00 73 1011.8
20260510084529 17 311 0.0 0.0 0.00 0.00 0.00 73 1011.6
20260510084029 17 296 0.0 1.6 0.00 0.00 0.00 73 1011.5
20260510083529 17 323 0.0 1.6 0.00 0.00 0.00 72 1011.3
20260510083029 17 352 0.0 1.6 0.00 0.00 0.00 71 1011.2
20260510082529 17 39 0.0 1.6 0.00 0.00 0.00 71 1011.0
20260510082029 17 255 0.0 1.6 0.00 0.00 0.00 70 1010.8
20260510081529 17 65 1.6 6.4 0.00 0.00 0.00 69 1010.7
20260510081029 17 58 1.6 4.8 0.00 0.00 0.00 67 1010.5
20260510080529 18 275 0.0 1.6 0.00 0.00 0.00 66 1010.6
20260510075029 17 334 0.0 3.2 0.00 0.00 0.00 69 1010.6
20260510074529 18 329 3.2 6.4 0.00 0.00 0.00 69 1010.7
20260510074029 18 357 3.2 12.9 0.00 0.00 0.00 68 1010.7
20260510073529 18 330 3.2 8.0 0.00 0.00 0.00 66 1010.6
20260510073029 18 21 1.6 3.2 0.00 0.00 0.00 64 1010.4
20260510072529 18 322 4.8 11.3 0.00 0.00 0.00 60 1010.2
20260510072029 18 232 8.0 19.3 0.00 0.00 0.00 59 1009.6
20260510071529 18 137 8.0 17.7 0.00 0.00 0.00 60 1009.0
20260510071029 18 153 6.4 12.9 0.00 0.00 0.00 62 1009.2
20260510070529 18 159 8.0 14.5 0.00 0.00 0.00 61 1008.9
20260510070029 18 153 6.4 16.1 0.00 0.00 0.00 61 1010.0
20260510065529 19 173 8.0 16.1 0.00 0.00 0.00 60 1011.2
20260510065029 18 197 4.8 11.3 0.00 0.00 0.00 61 1011.2
20260510064529 18 211 3.2 6.4 0.00 0.00 0.00 63 1010.8
20260510064029 18 204 1.6 9.7 0.00 0.00 0.00 61 1010.7
20260510063529 18 185 9.7 17.7 0.00 0.00 0.00 62 1010.0
20260510063029 18 175 8.0 17.7 0.00 0.00 0.00 61 1009.8
20260510062529 18 177 12.9 22.5 0.00 0.00 0.00 62 1010.1
20260510062029 18 184 14.5 24.1 0.00 0.00 0.00 62 1011.2
20260510061529 19 202 12.9 25.7 0.00 0.00 0.00 61 1012.6
20260510061029 19 207 6.4 14.5 0.00 0.00 0.00 61 1013.6
20260510060529 19 206 6.4 12.9 0.00 0.00 0.00 61 1014.0
20260510055029 20 272 1.6 4.8 0.00 0.00 0.00 59 1013.5
20260510054529 20 259 1.6 3.2 0.00 0.00 0.00 55 1013.4
20260510054029 20 135 0.0 3.2 0.00 0.00 0.00 56 1013.3
20260510053529 20 298 1.6 6.4 0.00 0.00 0.00 58 1013.3
20260510052529 19 317 1.6 11.3 0.00 0.00 0.00 67 1013.2
20260510052029 19 55 3.2 4.8 0.00 0.00 0.00 67 1013.1
20260510051529 20 79 3.2 4.8 0.00 0.00 0.00 65 1013.3
20260510051029 20 49 1.6 3.2 0.00 0.00 0.00 61 1013.5
20260510050529 20 74 0.0 3.2 0.00 0.00 0.00 60 1013.5
20260510050029 20 352 1.6 6.4 0.00 0.00 0.00 60 1013.5
20260510045529 20 337 0.0 3.2 0.00 0.00 0.00 61 1013.6
20260510045029 19 303 3.2 6.4 0.00 0.00 0.00 62 1013.5
20260510044529 19 290 3.2 11.3 0.00 0.00 0.00 64 1013.5
20260510044029 18 295 3.2 6.4 0.00 0.00 0.00 67 1013.3
20260510043529 18 294 1.6 4.8 0.00 0.00 0.00 66 1013.2
20260510043029 18 292 3.2 6.4 0.00 0.00 0.00 64 1013.1
20260510042529 19 310 1.6 4.8 0.00 0.00 0.00 62 1012.7
20260510042029 19 344 0.0 0.0 0.00 0.00 0.00 62 1012.3
20260510041529 19 94 0.0 3.2 0.00 0.00 0.00 60 1012.0
20260510041029 19 76 1.6 4.8 0.00 0.00 0.00 59 1011.7
20260510040529 19 66 1.6 4.8 0.00 0.00 0.00 57 1011.5
20260510040029 19 94 1.6 3.2 0.00 0.00 0.00 58 1011.4
20260510035529 19 104 1.6 3.2 0.00 0.00 0.00 58 1011.3
20260510035029 19 105 3.2 4.8 0.00 0.00 0.00 59 1011.2
20260510034529 19 110 3.2 4.8 0.00 0.00 0.00 60 1011.2
20260510034029 19 104 3.2 4.8 0.00 0.00 0.00 61 1011.1
20260510033529 19 96 4.8 8.0 0.00 0.00 0.00 61 1011.0
20260510033029 19 91 4.8 6.4 0.00 0.00 0.00 62 1011.0
20260510032529 19 96 4.8 6.4 0.00 0.00 0.00 64 1011.1
20260510032029 19 93 3.2 4.8 0.00 0.00 0.00 66 1011.1
20260510031529 19 85 1.6 3.2 0.00 0.00 0.00 68 1011.2
20260510031029 19 60 0.0 1.6 0.00 0.00 0.00 68 1011.2
20260510030529 19 82 1.6 3.2 0.00 0.00 0.00 66 1011.1
20260510030029 19 84 1.6 3.2 0.00 0.00 0.00 64 1011.1
20260510025529 19 81 1.6 3.2 0.00 0.00 0.00 63 1011.1
20260510025029 19 183 0.0 0.0 0.00 0.00 0.00 61 1011.2
20260510024529 19 184 0.0 0.0 0.00 0.00 0.00 61 1011.1
20260510024029 19 184 0.0 0.0 0.00 0.00 0.00 61 1010.9
20260510023529 19 239 0.0 0.0 0.00 0.00 0.00 61 1010.7
20260510023029 20 328 0.0 0.0 0.00 0.00 0.00 61 1010.5
20260510022529 20 328 0.0 0.0 0.00 0.00 0.00 60 1010.3
20260510022029 20 345 0.0 0.0 0.00 0.00 0.00 58 1010.1
20260510021529 20 47 0.0 0.0 0.00 0.00 0.00 56 1009.9
20260510021029 20 85 0.0 0.0 0.00 0.00 0.00 55 1009.6
20260510020529 20 86 0.0 0.0 0.00 0.00 0.00 55 1009.4
20260510015029 21 103 0.0 4.8 0.00 0.00 0.00 54 1009.1
20260510014529 21 121 0.0 0.0 0.00 0.00 0.00 53 1009.1
20260510014029 21 119 0.0 1.6 0.00 0.00 0.00 52 1009.1
20260510013529 21 128 0.0 1.6 0.00 0.00 0.00 51 1008.9
20260510013029 21 112 0.0 1.6 0.00 0.00 0.00 50 1008.8
20260510012529 22 126 0.0 1.6 0.00 0.00 0.00 50 1008.7
20260510012029 22 126 0.0 0.0 0.00 0.00 0.00 50 1008.6
20260510011529 22 123 0.0 0.0 0.00 0.00 0.00 49 1008.5
20260510011029 22 132 0.0 0.0 0.00 0.00 0.00 48 1008.5
20260510010529 23 124 0.0 1.6 0.00 0.00 0.00 47 1008.4
20260510010029 23 116 0.0 1.6 0.00 0.00 0.00 47 1008.4
20260510005530 23 117 0.0 1.6 0.00 0.00 0.00 46 1008.4
20260510005029 23 129 0.0 4.8 0.00 0.00 0.00 45 1008.4
20260510004529 23 141 0.0 6.4 0.00 0.00 0.00 45 1008.3
20260510004029 24 126 0.0 3.2 0.00 0.00 0.00 44 1008.3
20260510003529 24 119 1.6 4.8 0.00 0.00 0.00 43 1008.3
20260510003029 24 108 0.0 4.8 0.00 0.00 0.00 42 1008.2
20260510002529 24 137 1.6 3.2 0.00 0.00 0.00 41 1008.2
20260510002029 25 144 0.0 3.2 0.00 0.00 0.00 40 1008.2
20260510001529 25 143 1.6 4.8 0.00 0.00 0.00 38 1008.2
20260510001029 25 142 1.6 6.4 0.00 0.00 0.00 37 1008.2
20260510000529 25 127 1.6 6.4 0.00 0.00 0.00 36 1008.3
20260510000029 25 127 1.6 6.4 0.00 0.03 0.00 35 1008.3
20260509235529 25 149 3.2 6.4 0.00 0.03 0.00 34 1008.3
20260509235029 26 132 4.8 12.9 0.00 0.03 0.00 33 1008.3
20260509234529 26 117 3.2 9.7 0.00 0.08 0.00 36 1008.3
20260509234029 26 145 4.8 8.0 0.00 0.15 0.00 35 1008.3
20260509233529 26 130 4.8 9.7 0.00 0.38 0.00 35 1008.3
20260509233029 26 125 3.2 12.9 0.00 0.38 0.00 34 1008.4
20260509232529 26 123 4.8 12.9 0.00 0.38 0.00 33 1008.4
20260509232029 26 119 6.4 11.3 0.00 0.38 0.00 32 1008.5
20260509231529 26 135 4.8 12.9 0.00 0.38 0.00 32 1008.4
20260509231029 26 140 4.8 12.9 0.00 0.38 0.00 33 1008.4
20260509230529 26 137 3.2 6.4 0.00 0.38 0.00 33 1008.4
20260509230029 27 144 4.8 11.3 0.00 0.38 0.00 32 1008.5
20260509225529 27 129 4.8 14.5 0.00 0.38 0.00 32 1008.5
20260509225029 27 113 6.4 12.9 0.00 0.38 0.00 31 1008.5
20260509224529 27 149 4.8 8.0 0.00 0.38 0.00 30 1008.5
20260509224029 27 91 6.4 14.5 0.00 0.38 0.00 30 1008.5
20260509223529 27 118 4.8 9.7 0.00 0.38 0.00 30 1008.6
20260509223029 27 118 4.8 11.3 0.00 0.38 0.00 28 1008.6
20260509222529 27 108 6.4 12.9 0.00 0.38 0.00 27 1008.5
20260509222029 27 101 8.0 12.9 0.00 0.38 0.00 28 1008.5
20260509221529 27 132 4.8 11.3 0.00 0.38 0.00 30 1008.7
20260509221029 27 135 4.8 12.9 0.00 0.38 0.00 30 1008.8
20260509220529 27 140 4.8 12.9 0.00 0.38 0.00 31 1008.7
20260509220029 27 124 4.8 11.3 0.00 0.38 0.00 30 1008.6
20260509215529 28 105 4.8 12.9 0.00 0.38 0.00 30 1008.6
20260509215029 28 120 4.8 11.3 0.00 0.38 0.00 29 1008.7
20260509214529 28 131 4.8 9.7 0.00 0.38 0.00 27 1008.8
20260509214029 28 111 6.4 12.9 0.00 0.38 0.00 28 1008.8
20260509213529 28 128 4.8 8.0 0.00 0.38 0.00 29 1008.8
20260509213029 28 148 4.8 9.7 0.00 0.38 0.00 30 1008.8
20260509212529 27 112 4.8 12.9 0.00 0.38 0.00 29 1008.9
20260509212029 27 99 6.4 12.9 0.00 0.38 0.00 30 1009.0
20260509211529 27 114 6.4 12.9 0.00 0.38 0.00 30 1009.1
20260509211029 28 113 6.4 11.3 0.00 0.38 0.00 30 1009.2
20260509210529 28 109 4.8 14.5 0.00 0.38 0.00 31 1009.2
20260509210029 28 95 6.4 12.9 0.00 0.38 0.00 30 1009.3
20260509205529 28 104 4.8 9.7 0.00 0.38 0.00 28 1009.4
20260509205029 28 121 4.8 8.0 0.00 0.38 0.00 26 1009.6
20260509204529 28 91 6.4 12.9 0.00 0.38 0.00 26 1009.7
20260509204029 28 106 3.2 12.9 0.00 0.38 0.00 27 1009.7
20260509203529 28 89 8.0 14.5 0.00 0.38 0.00 25 1009.8
20260509203029 28 115 4.8 12.9 0.00 0.38 0.00 25 1009.8
20260509202529 28 119 4.8 8.0 0.00 0.38 0.00 26 1009.9
20260509202029 28 115 3.2 8.0 0.00 0.38 0.00 28 1009.8
20260509201529 28 72 6.4 11.3 0.00 0.38 0.00 29 1009.8
20260509201029 28 119 3.2 6.4 0.00 0.38 0.00 31 1009.9
20260509200529 28 153 1.6 6.4 0.00 0.38 0.00 31 1009.9
20260509200029 28 165 3.2 6.4 0.00 0.38 0.00 28 1009.9
20260509195529 28 104 4.8 11.3 0.00 0.38 0.00 28 1009.9
20260509195029 28 147 3.2 8.0 0.00 0.38 0.00 29 1010.0
20260509194530 28 106 4.8 11.3 0.00 0.38 0.00 28 1010.0
20260509194029 28 138 4.8 11.3 0.00 0.38 0.00 27 1010.1
20260509193529 28 156 4.8 9.7 0.00 0.38 0.00 28 1010.2
20260509193029 28 140 4.8 9.7 0.00 0.38 0.00 29 1010.2
20260509192529 27 115 3.2 6.4 0.00 0.38 0.00 26 1010.2
20260509192029 27 94 6.4 12.9 0.00 0.38 0.00 25 1010.2
20260509191529 27 95 6.4 14.5 0.00 0.38 0.00 28 1010.2
20260509191029 27 172 1.6 8.0 0.00 0.38 0.00 27 1010.3
20260509190529 27 127 3.2 6.4 0.00 0.38 0.00 28 1010.2
20260509190029 27 133 4.8 12.9 0.00 0.38 0.00 29 1010.2
20260509185529 27 116 3.2 8.0 0.00 0.38 0.00 31 1010.2
20260509185029 27 105 4.8 11.3 0.00 0.38 0.00 31 1010.3
20260509184529 27 115 6.4 11.3 0.00 0.38 0.00 32 1010.4
20260509184029 27 70 3.2 8.0 0.00 0.38 0.00 30 1010.4
20260509183529 27 105 3.2 9.7 0.00 0.38 0.00 34 1010.4
20260509183029 27 61 3.2 9.7 0.00 0.38 0.00 34 1010.4
20260509182529 27 62 1.6 4.8 0.00 0.38 0.00 30 1010.4
20260509182029 27 98 3.2 8.0 0.00 0.38 0.00 28 1010.6
20260509181529 27 108 4.8 9.7 0.00 0.38 0.00 34 1010.8
20260509181029 26 182 3.2 6.4 0.00 0.38 0.00 45 1010.8
20260509180529 26 67 3.2 8.0 0.00 0.38 0.00 47 1010.9
20260509180029 26 86 4.8 11.3 0.00 0.38 0.00 42 1010.9
20260509175529 26 106 3.2 9.7 0.00 0.38 0.00 42 1010.9
20260509175029 26 55 4.8 9.7 0.00 0.38 0.00 54 1010.9
20260509174529 26 106 1.6 6.4 0.00 0.38 0.00 51 1011.0
20260509174029 25 0 3.2 9.7 0.00 0.38 0.00 53 1011.2
20260509173529 25 234 1.6 4.8 0.00 0.38 0.00 61 1011.2
20260509173029 25 262 3.2 6.4 0.00 0.38 0.00 60 1011.4
20260509172529 25 324 1.6 6.4 0.00 0.38 0.00 59 1011.5
20260509172029 25 334 4.8 11.3 0.00 0.38 0.00 64 1011.5
20260509171529 25 320 3.2 6.4 0.00 0.38 0.00 64 1011.6
20260509171029 25 340 3.2 6.4 0.00 0.38 0.00 66 1011.6
20260509170529 25 345 1.6 8.0 0.00 0.38 0.00 66 1011.7
20260509170029 24 309 1.6 6.4 0.00 0.38 0.00 68 1011.6
20260509165531 24 358 1.6 6.4 0.00 0.38 0.00 66 1011.5
20260509165029 23 358 1.6 4.8 0.00 0.38 0.00 69 1011.5
20260509164529 23 331 1.6 8.0 0.00 0.38 0.00 68 1011.5
20260509164029 23 349 1.6 8.0 0.00 0.38 0.00 71 1011.5
20260509163529 22 170 1.6 3.2 0.00 0.38 0.00 70 1011.4
20260509163029 22 335 4.8 8.0 0.00 0.38 0.00 70 1011.5
20260509162529 22 323 4.8 9.7 0.00 0.38 0.00 68 1011.5
20260509162029 22 294 0.0 3.2 0.00 0.38 0.00 72 1011.4
20260509161529 22 48 3.2 6.4 0.00 0.38 0.00 72 1011.3
20260509161029 22 43 3.2 6.4 0.00 0.38 0.00 73 1011.3
20260509160529 22 18 0.0 3.2 0.00 0.38 0.00 75 1011.3
20260509160031 21 348 1.6 6.4 0.00 0.38 0.00 75 1011.3
20260509155529 21 1 1.6 8.0 0.00 0.38 0.00 75 1011.3
20260509155032 21 305 4.8 9.7 0.00 0.38 0.00 74 1011.3
20260509154529 21 288 0.0 3.2 0.00 0.38 0.00 78 1011.3
20260509154029 21 309 1.6 4.8 0.00 0.38 0.00 77 1011.3
20260509153529 20 307 0.0 3.2 0.00 0.38 0.00 80 1011.2
20260509153029 20 12 1.6 4.8 0.00 0.38 0.00 78 1011.2
20260509152529 20 306 1.6 3.2 0.00 0.38 0.00 80 1011.2
20260509152029 20 300 1.6 4.8 0.00 0.38 0.00 81 1011.3
20260509151529 20 326 1.6 4.8 0.00 0.38 0.00 81 1011.2
20260509151029 20 321 3.2 8.0 0.00 0.38 0.00 78 1011.1
20260509150529 20 296 1.6 4.8 0.00 0.38 0.00 76 1011.1
20260509150029 20 298 0.0 1.6 0.00 0.38 0.00 78 1011.2
20260509145529 20 132 1.6 6.4 0.00 0.38 0.00 77 1011.2
20260509145029 19 188 1.6 4.8 0.00 0.38 0.00 78 1011.2
20260509144529 19 228 1.6 6.4 0.00 0.38 0.00 82 1011.2
20260509144029 18 226 0.0 4.8 0.00 0.38 0.00 85 1011.2
20260509143529 18 247 0.0 0.0 0.00 0.38 0.00 87 1011.2
20260509143029 17 253 0.0 3.2 0.00 0.38 0.00 87 1011.3
20260509142529 17 283 0.0 3.2 0.00 0.38 0.00 89 1011.3
20260509142029 17 263 0.0 3.2 0.00 0.38 0.00 90 1011.3
20260509141529 17 254 0.0 1.6 0.00 0.38 0.00 91 1011.3
20260509141029 17 172 0.0 3.2 0.00 0.38 0.00 93 1011.2
20260509140529 16 153 0.0 0.0 0.00 0.38 0.00 95 1011.1
20260509140029 16 71 0.0 1.6 0.00 0.38 0.00 95 1011.0
20260509135529 15 102 1.6 3.2 0.00 0.38 0.00 96 1011.0
20260509135029 15 98 0.0 1.6 0.00 0.38 0.00 97 1011.0
20260509134529 15 90 0.0 1.6 0.00 0.38 0.00 97 1011.0
20260509134029 15 50 1.6 3.2 0.00 0.38 0.00 97 1011.0
20260509133530 14 86 3.2 3.2 0.00 0.38 0.00 97 1011.0
20260509133029 14 198 0.0 1.6 0.00 0.38 0.00 97 1010.8
20260509132529 13 281 0.0 0.0 0.00 0.38 0.00 97 1010.8
20260509132029 13 296 0.0 0.0 0.00 0.38 0.00 97 1010.7
20260509131529 13 305 0.0 1.6 0.00 0.38 0.00 97 1010.7
20260509131028 13 251 0.0 3.2 0.00 0.38 0.00 97 1010.6